Regional Weather Roundup
Issued by NWS

Home | Current Version | Previous Version | Text Only | Print | Product List | Glossary Off
Versions: 1 2 3 4 5 6 7 8 9 10 11 12 13 14 15 16 17 18 19 20 21 22 23 24 25 26 27 28 29 30 31 32 33 34 35 36 37 38 39 40 41 42 43 44 45 46 47 48 49 50

453
ASUS43 KFSD 200802
RWRSD

WEATHER ROUNDUP FOR SOUTH DAKOTA
NATIONAL WEATHER SERVICE SIOUX FALLS SD
200 AM CST MON NOV 20 2017

NOTE: "FAIR" INDICATES FEW OR NO CLOUDS BELOW 12,000 FEET WITH NO
SIGNIFICANT WEATHER AND/OR OBSTRUCTIONS TO VISIBILITY.


SDZ001>005-009-010-012>017-200900-
NORTHWEST AND NORTH CENTRAL SOUTH DAKOTA

CITY           SKY/WX    TMP DP  RH WIND       PRES   REMARKS
BUFFALO          N/A     37  19  48 W9        29.53F
FAITH            N/A     34  22  61 SW10      29.61F WCI  26
MOBRIDGE       CLOUDY    31  26  82 SE6       29.58F WCI  25
$$

SDZ012>016-024>037-041>051-057-063-072>074-200900-
SOUTHWEST AND SOUTH CENTRAL SOUTH DAKOTA

CITY           SKY/WX    TMP DP  RH WIND       PRES   REMARKS
RAPID CTY ARPT CLOUDY    29  16  58 CALM      29.65F
PIERRE         PTCLDY    29  20  69 S3        29.63F
CUSTER         CLOUDY    36   9  32 W10       29.73F
ELLSWORTH AFB  CLOUDY    41  13  31 SW3       29.65F
PHILIP         CLOUDY    31  21  66 W13       29.65F WCI  21
PINE RIDGE     CLOUDY    39  13  34 W3        29.75F
SPEARFISH      FAIR      52   5  15 W10G21    29.66S
WINNER         FAIR      39  20  46 SW15      29.67F
$$

SDZ004>011-016>023-039-040-200900-
NORTHEAST SOUTH DAKOTA

CITY           SKY/WX    TMP DP  RH WIND       PRES   REMARKS
ABERDEEN       CLOUDY    20  18  92 S7        29.65F WCI  11
WATERTOWN      CLOUDY    27  22  81 S7        29.67F WCI  19
BROOKINGS      CLOUDY    31  24  75 SE6       29.70F WCI  25
SISSETON         N/A     28  22  78 S7        29.65F WCI  21
$$

SDZ017-020-022-023-036>040-048>070-200900-
SOUTHEAST SOUTH DAKOTA

CITY           SKY/WX    TMP DP  RH WIND       PRES   REMARKS
SIOUX FALLS    CLOUDY    30  23  75 S5        29.71F WCI  25
HURON          CLOUDY    28  22  78 SE7       29.65F WCI  21
CHAMBERLAIN    CLOUDY    34  23  64 CALM      29.66S
MITCHELL       CLOUDY    29  23  78 S8        29.68F WCI  21
YANKTON        CLOUDY    40  24  53 SW9       29.71F
$$

ABBREVIATIONS USED IN REMARKS
   TC - TEMPERATURE IN CELSIUS
  WCI - WIND CHILL INDEX
   HX - HEAT INDEX
  VSB - VISIBILITY





USA.gov is the U.S. government's official web portal to all federal, state and local government web resources and services.